RANDEV (52898 NORAD) Tracking and Keplerian Element Data

This shows tracking and keplerian element data for the satellite.

Feedback or suggestion? Click here.




ElementValue
Catalog52898
NameRANDEV
Epoch Orbit1279
Epoch Day270.04443462
Epoch Year2022
RAAN57.9778
Inclination98.0328
Eccentricity0.000776
Argument of Perigee325.0923
Mean Anonmoly34.9767
Mean Motion14.58404013
Decay Rate5.48E-06
L11 52898U 22065E 22270.04443462 .00000548 00000+0 12781-3 0 9995
L22 52898 98.0328 57.9778 0007760 325.0923 34.9767 14.58404013 12796

Live tracking and technical data element details for RANDEV (NORAD 52898). RANDEV can be tracked NOW for your location showing map with azimuth and elevation plus other details from your city location.

Track the satellite on the map from your city or location and see movement details for azimuth, elevation, latitude, longitude, range, height, and movement on the map or in text.







IsCatalogInMostPopularTable: catalog: 52898, numindb: 7
Update: records affected: 1



GetName: 52898 RANDEV

Hit Count: updated at: Thu, 06 Oct 2022 04:27:47 GMT